Meath Environmental Platform

Observations for Trim Market St

Time AQI Temp °C Hum % Pres Pa CO μg/m³ H₂S μg/m³ NO μg/m³ NO₂ μg/m³ O₃ μg/m³ SO₂ μg/m³ PM1 μg/m³ PM2.5 μg/m³ PM10 μg/m³
Thursday 16 July 2026
17:26 2 35 27 66,602 0 31.54 0 12.44 49.88 1.99 7.13 13.82 18.1
17:25 2 35.2 27 66,608 0 29.5 0 2.31 28.53 3.41 7.84 12.74 17.23
17:24 2 35.4 27 66,639 0 38.57 0 13.1 49.57 2.92 8.55 16.05 21.68
17:20 2 36.2 25 66,696 0 25.02 0 4.82 42.58 3.95 7.13 13.4 18.23
17:19 2 36.4 25 66,686 0 18.35 0 4.31 36.08 3.72 7.13 13.98 18.25
17:18 2 36.7 25 66,694 0 24.66 0 4.55 46.29 5.01 6.41 11.79 15.58
17:15 2 37.4 24 66,778 0 10.87 0 9.04 30.28 3.59 6.41 12.94 16.52
17:06 1 39.1 23 66,884 0 11.22 0 8.99 35.73 3.74 7.84 13.55 18.38
17:05 1 39.2 23 66,892 0 13.86 0 7.78 45.51 3.86 8.55 16.87 23.82
17:04 1 39.3 23 66,894 0 0 0 0 38.13 3.8 8.55 15.23 21.12
17:03 1 39.4 23 66,926 0 0 0 0 23.43 4.59 6.41 13.57 17.5
17:02 1 39.5 23 66,965 0 6.47 0 5.32 42.4 4.55 7.84 14.12 18.4
17:01 1 39.5 23 66,955 0 6.77 0 5.94 42.48 4.35 6.41 13.58 18.42
17:00 1 39.6 23 66,977 0 6.98 0 3.41 38.56 4.78 8.55 15.24 21.14
16:59 1 39.6 23 66,973 0 0 0 3.71 42.98 4.24 7.84 14.14 20.23
16:58 1 39.7 23 66,965 0 5.85 0 0 35.7 5.49 7.84 13.58 18.41
16:54 1 39.8 22 67,015 0 2.22 0 7.34 64.67 3.71 7.84 14.19 19.38
16:50 1 40 22 67,043 0 0 0 0 30.87 4.74 7.13 13.08 17.56
16:47 1 40.1 22 67,065 0 0 0 0 54.96 5.82 7.13 13.07 19.37
16:43 1 40.3 22 67,072 0 0 0 3.95 41 4.29 7.13 14.21 18.5